| time (UTC) | temp F | wind direction | speed MPH | gust MPH | rain 1hr in | rain 24hr in | rain mn in | humidity % | barometer mb |
| 20260904015003 | 81 | 75 | 0.0 | 2.0 | 0.00 | 0.00 | 0.00 | 76 | 1015.6 |
| 20260904014502 | 81 | 76 | 1.0 | 3.0 | 0.00 | 0.00 | 0.00 | 75 | 1015.6 |
| 20260904014003 | 81 | 75 | 1.0 | 3.0 | 0.00 | 0.00 | 0.00 | 75 | 1015.6 |
| 20260904013502 | 81 | 66 | 0.0 | 2.0 | 0.00 | 0.00 | 0.00 | 74 | 1015.6 |
| 20260904013003 | 81 | 63 | 1.0 | 2.0 | 0.00 | 0.00 | 0.00 | 73 | 1015.6 |
| 20260904012502 | 82 | 63 | 0.0 | 2.0 | 0.00 | 0.00 | 0.00 | 73 | 1015.5 |
| 20260904012002 | 82 | 64 | 0.0 | 1.0 | 0.00 | 0.00 | 0.00 | 72 | 1015.4 |
| 20260904011502 | 82 | 64 | 0.0 | 1.0 | 0.00 | 0.00 | 0.00 | 71 | 1015.5 |
| 20260904011003 | 82 | 63 | 0.0 | 1.0 | 0.00 | 0.00 | 0.00 | 71 | 1015.5 |
| 20260904010006 | 82 | 63 | 0.0 | 1.0 | 0.00 | 0.00 | 0.00 | 69 | 1015.4 |
| 20260904005504 | 83 | 63 | 0.0 | 2.0 | 0.00 | 0.00 | 0.00 | 69 | 1015.3 |
| 20260904005003 | 83 | 59 | 1.0 | 3.0 | 0.00 | 0.00 | 0.00 | 68 | 1015.3 |
| 20260904004003 | 83 | 44 | 1.0 | 4.0 | 0.00 | 0.00 | 0.00 | 67 | 1015.3 |
| 20260904003502 | 84 | 43 | 3.0 | 5.0 | 0.00 | 0.00 | 0.00 | 66 | 1015.4 |
| 20260904003003 | 84 | 49 | 3.0 | 5.0 | 0.00 | 0.00 | 0.00 | 67 | 1015.3 |
| 20260904002502 | 85 | 37 | 1.0 | 7.0 | 0.00 | 0.00 | 0.00 | 69 | 1015.3 |
| 20260904001502 | 86 | 34 | 3.0 | 6.0 | 0.00 | 0.00 | 0.00 | 69 | 1015.1 |
| 20260904000503 | 87 | 25 | 4.0 | 6.0 | 0.00 | 0.00 | 0.00 | 68 | 1015.0 |
| 20260904000007 | 88 | 279 | 1.0 | 4.0 | 0.00 | 0.00 | 0.00 | 65 | 1014.8 |
| 20260903235502 | 89 | 281 | 1.0 | 3.0 | 0.00 | 0.00 | 0.00 | 63 | 1014.7 |
| 20260903235003 | 89 | 255 | 1.0 | 4.0 | 0.00 | 0.00 | 0.00 | 63 | 1014.7 |
| 20260903234002 | 90 | 239 | 2.0 | 4.0 | 0.00 | 0.00 | 0.00 | 61 | 1014.7 |
| 20260903233502 | 90 | 237 | 2.0 | 6.0 | 0.00 | 0.00 | 0.00 | 61 | 1014.7 |
| 20260903233002 | 90 | 221 | 2.0 | 6.0 | 0.00 | 0.00 | 0.00 | 60 | 1014.7 |
| 20260903232503 | 90 | 268 | 3.0 | 7.0 | 0.00 | 0.00 | 0.00 | 60 | 1014.7 |
| 20260903232002 | 91 | 240 | 4.0 | 7.0 | 0.00 | 0.00 | 0.00 | 60 | 1014.6 |
| 20260903231502 | 91 | 243 | 3.0 | 7.0 | 0.00 | 0.00 | 0.00 | 60 | 1014.6 |
| 20260903230503 | 91 | 257 | 3.0 | 7.0 | 0.00 | 0.00 | 0.00 | 59 | 1014.5 |
| 20260903230005 | 91 | 273 | 3.0 | 7.0 | 0.00 | 0.00 | 0.00 | 58 | 1014.5 |
| 20260903225504 | 92 | 247 | 4.0 | 7.0 | 0.00 | 0.00 | 0.00 | 58 | 1014.5 |
| 20260903225002 | 92 | 249 | 4.0 | 7.0 | 0.00 | 0.00 | 0.00 | 57 | 1014.4 |
| 20260903224502 | 92 | 245 | 3.0 | 8.0 | 0.00 | 0.00 | 0.00 | 57 | 1014.2 |
| 20260903224002 | 92 | 243 | 4.0 | 8.0 | 0.00 | 0.00 | 0.00 | 56 | 1014.2 |
| 20260903223503 | 92 | 262 | 5.0 | 10.0 | 0.00 | 0.00 | 0.00 | 56 | 1014.1 |
| 20260903223002 | 92 | 216 | 6.0 | 10.0 | 0.00 | 0.00 | 0.00 | 57 | 1014.1 |
| 20260903222502 | 92 | 248 | 6.0 | 12.0 | 0.00 | 0.00 | 0.00 | 55 | 1014.1 |
| 20260903222002 | 92 | 245 | 7.0 | 12.0 | 0.00 | 0.00 | 0.00 | 55 | 1014.1 |
| 20260903221503 | 92 | 237 | 7.0 | 12.0 | 0.00 | 0.00 | 0.00 | 55 | 1014.2 |
| 20260903221002 | 93 | 221 | 7.0 | 12.0 | 0.00 | 0.00 | 0.00 | 55 | 1014.3 |
| 20260903220006 | 93 | 270 | 6.0 | 10.0 | 0.00 | 0.00 | 0.00 | 54 | 1014.2 |
| 20260903215503 | 93 | 263 | 7.0 | 10.0 | 0.00 | 0.00 | 0.00 | 54 | 1014.2 |
| 20260903215002 | 93 | 237 | 7.0 | 10.0 | 0.00 | 0.00 | 0.00 | 53 | 1014.3 |
| 20260903214502 | 93 | 252 | 6.0 | 11.0 | 0.00 | 0.00 | 0.00 | 55 | 1014.4 |
| 20260903214005 | 93 | 266 | 5.0 | 13.0 | 0.00 | 0.00 | 0.00 | 54 | 1014.3 |
| 20260903213002 | 93 | 251 | 5.0 | 12.0 | 0.00 | 0.00 | 0.00 | 56 | 1014.4 |
| 20260903212505 | 93 | 264 | 5.0 | 9.0 | 0.00 | 0.00 | 0.00 | 57 | 1014.4 |
| 20260903212002 | 93 | 266 | 6.0 | 12.0 | 0.00 | 0.00 | 0.00 | 55 | 1014.5 |
| 20260903211502 | 93 | 263 | 6.0 | 12.0 | 0.00 | 0.00 | 0.00 | 55 | 1014.4 |
| 20260903211002 | 93 | 269 | 7.0 | 12.0 | 0.00 | 0.00 | 0.00 | 55 | 1014.3 |
| 20260903210503 | 93 | 279 | 7.0 | 11.0 | 0.00 | 0.00 | 0.00 | 55 | 1014.3 |
| 20260903210006 | 93 | 285 | 7.0 | 15.0 | 0.00 | 0.00 | 0.00 | 53 | 1014.2 |
| 20260903205502 | 93 | 275 | 10.0 | 15.0 | 0.00 | 0.00 | 0.00 | 53 | 1014.3 |
| 20260903205002 | 93 | 252 | 7.0 | 13.0 | 0.00 | 0.00 | 0.00 | 54 | 1014.3 |
| 20260903204502 | 93 | 248 | 9.0 | 13.0 | 0.00 | 0.00 | 0.00 | 54 | 1014.3 |
| 20260903204006 | 93 | 237 | 7.0 | 12.0 | 0.00 | 0.00 | 0.00 | 55 | 1014.3 |
| 20260903203502 | 93 | 256 | 8.0 | 12.0 | 0.00 | 0.00 | 0.00 | 55 | 1014.2 |
| 20260903203003 | 93 | 247 | 8.0 | 15.0 | 0.00 | 0.00 | 0.00 | 54 | 1014.3 |
| 20260903202501 | 93 | 224 | 9.0 | 15.0 | 0.00 | 0.00 | 0.00 | 53 | 1014.2 |
| 20260903202003 | 93 | 239 | 9.0 | 15.0 | 0.00 | 0.00 | 0.00 | 52 | 1014.3 |
| 20260903201503 | 93 | 257 | 8.0 | 15.0 | 0.00 | 0.00 | 0.00 | 53 | 1014.3 |
| 20260903201001 | 93 | 257 | 7.0 | 13.0 | 0.00 | 0.00 | 0.00 | 54 | 1014.4 |
| 20260903200504 | 93 | 271 | 8.0 | 12.0 | 0.00 | 0.00 | 0.00 | 54 | 1014.4 |
| 20260903195502 | 93 | 255 | 6.0 | 11.0 | 0.00 | 0.00 | 0.00 | 53 | 1014.7 |
| 20260903195001 | 93 | 271 | 7.0 | 14.0 | 0.00 | 0.00 | 0.00 | 53 | 1014.7 |
| 20260903194502 | 94 | 239 | 8.0 | 14.0 | 0.00 | 0.00 | 0.00 | 53 | 1014.8 |
| 20260903193002 | 93 | 269 | 7.0 | 14.0 | 0.00 | 0.00 | 0.00 | 52 | 1015.2 |
| 20260903192505 | 93 | 226 | 7.0 | 14.0 | 0.00 | 0.00 | 0.00 | 52 | 1015.3 |
| 20260903192001 | 93 | 202 | 7.0 | 14.0 | 0.00 | 0.00 | 0.00 | 52 | 1015.4 |
| 20260903191503 | 93 | 256 | 8.0 | 13.0 | 0.00 | 0.00 | 0.00 | 51 | 1015.4 |
| 20260903191002 | 93 | 245 | 7.0 | 15.0 | 0.00 | 0.00 | 0.00 | 53 | 1015.5 |
| 20260903190501 | 93 | 261 | 6.0 | 12.0 | 0.00 | 0.00 | 0.00 | 53 | 1015.6 |
| 20260903190005 | 93 | 257 | 7.0 | 14.0 | 0.00 | 0.00 | 0.00 | 53 | 1015.6 |
| 20260903185503 | 93 | 240 | 9.0 | 14.0 | 0.00 | 0.00 | 0.00 | 52 | 1015.6 |
| 20260903185003 | 93 | 244 | 7.0 | 12.0 | 0.00 | 0.00 | 0.00 | 50 | 1015.6 |
| 20260903184002 | 93 | 263 | 8.0 | 12.0 | 0.00 | 0.00 | 0.00 | 51 | 1015.7 |
| 20260903183502 | 94 | 238 | 7.0 | 12.0 | 0.00 | 0.00 | 0.00 | 52 | 1015.7 |
| 20260903183003 | 93 | 258 | 5.0 | 12.0 | 0.00 | 0.00 | 0.00 | 51 | 1015.6 |
| 20260903182501 | 93 | 241 | 6.0 | 12.0 | 0.00 | 0.00 | 0.00 | 51 | 1015.6 |
| 20260903182002 | 93 | 238 | 6.0 | 12.0 | 0.00 | 0.00 | 0.00 | 52 | 1015.6 |
| 20260903181504 | 93 | 250 | 6.0 | 11.0 | 0.00 | 0.00 | 0.00 | 52 | 1015.7 |
| 20260903181003 | 93 | 242 | 6.0 | 12.0 | 0.00 | 0.00 | 0.00 | 52 | 1015.7 |
| 20260903180502 | 93 | 241 | 8.0 | 12.0 | 0.00 | 0.00 | 0.00 | 51 | 1015.7 |
| 20260903180005 | 93 | 236 | 8.0 | 12.0 | 0.00 | 0.00 | 0.00 | 52 | 1015.7 |
| 20260903175502 | 93 | 234 | 4.0 | 11.0 | 0.00 | 0.00 | 0.00 | 54 | 1015.7 |
| 20260903175005 | 92 | 236 | 7.0 | 13.0 | 0.00 | 0.00 | 0.00 | 53 | 1015.8 |
| 20260903174503 | 92 | 253 | 8.0 | 13.0 | 0.00 | 0.00 | 0.00 | 54 | 1015.8 |
| 20260903174002 | 92 | 266 | 5.0 | 12.0 | 0.00 | 0.00 | 0.00 | 54 | 1015.8 |
| 20260903173502 | 92 | 260 | 7.0 | 12.0 | 0.00 | 0.00 | 0.00 | 55 | 1015.8 |
| 20260903173002 | 92 | 242 | 6.0 | 13.0 | 0.00 | 0.00 | 0.00 | 54 | 1015.9 |
| 20260903172505 | 92 | 250 | 6.0 | 13.0 | 0.00 | 0.00 | 0.00 | 54 | 1015.9 |
| 20260903172002 | 92 | 250 | 7.0 | 13.0 | 0.00 | 0.00 | 0.00 | 54 | 1016.0 |
| 20260903171501 | 92 | 236 | 6.0 | 14.0 | 0.00 | 0.00 | 0.00 | 54 | 1016.0 |
| 20260903171002 | 92 | 230 | 10.0 | 14.0 | 0.00 | 0.00 | 0.00 | 53 | 1016.0 |
| 20260903170506 | 92 | 247 | 6.0 | 12.0 | 0.00 | 0.00 | 0.00 | 54 | 1016.1 |
| 20260903170004 | 91 | 227 | 6.0 | 13.0 | 0.00 | 0.00 | 0.00 | 54 | 1016.1 |
| 20260903165501 | 92 | 247 | 8.0 | 13.0 | 0.00 | 0.00 | 0.00 | 53 | 1016.2 |
| 20260903165002 | 91 | 269 | 6.0 | 10.0 | 0.00 | 0.00 | 0.00 | 56 | 1016.2 |
| 20260903164501 | 91 | 162 | 7.0 | 14.0 | 0.00 | 0.00 | 0.00 | 57 | 1016.2 |
| 20260903164001 | 91 | 237 | 7.0 | 14.0 | 0.00 | 0.00 | 0.00 | 56 | 1016.2 |
| 20260903163500 | 90 | 274 | 5.0 | 12.0 | 0.00 | 0.00 | 0.00 | 56 | 1016.3 |
| 20260903163002 | 90 | 251 | 8.0 | 12.0 | 0.00 | 0.00 | 0.00 | 55 | 1016.4 |
| 20260903162501 | 90 | 252 | 8.0 | 11.0 | 0.00 | 0.00 | 0.00 | 57 | 1016.4 |
| 20260903162001 | 90 | 262 | 6.0 | 11.0 | 0.00 | 0.00 | 0.00 | 59 | 1016.5 |
| 20260903161500 | 90 | 241 | 7.0 | 11.0 | 0.00 | 0.00 | 0.00 | 60 | 1016.5 |
| 20260903161003 | 90 | 224 | 8.0 | 11.0 | 0.00 | 0.00 | 0.00 | 60 | 1016.6 |
| 20260903160502 | 90 | 233 | 6.0 | 10.0 | 0.00 | 0.00 | 0.00 | 59 | 1016.6 |
| 20260903160004 | 89 | 229 | 5.0 | 11.0 | 0.00 | 0.00 | 0.00 | 61 | 1016.6 |
| 20260903155502 | 89 | 268 | 7.0 | 13.0 | 0.00 | 0.00 | 0.00 | 63 | 1016.6 |
| 20260903155001 | 89 | 224 | 8.0 | 13.0 | 0.00 | 0.00 | 0.00 | 61 | 1016.7 |
| 20260903154500 | 89 | 217 | 8.0 | 13.0 | 0.00 | 0.00 | 0.00 | 61 | 1016.7 |
| 20260903154000 | 89 | 219 | 8.0 | 12.0 | 0.00 | 0.00 | 0.00 | 61 | 1016.7 |
| 20260903153000 | 89 | 245 | 7.0 | 10.0 | 0.00 | 0.00 | 0.00 | 62 | 1016.6 |
| 20260903152500 | 88 | 221 | 7.0 | 10.0 | 0.00 | 0.00 | 0.00 | 63 | 1016.7 |
| 20260903152002 | 88 | 221 | 7.0 | 10.0 | 0.00 | 0.00 | 0.00 | 63 | 1016.6 |
| 20260903151502 | 88 | 217 | 5.0 | 10.0 | 0.00 | 0.00 | 0.00 | 65 | 1016.6 |
| 20260903151001 | 88 | 229 | 7.0 | 10.0 | 0.00 | 0.00 | 0.00 | 65 | 1016.6 |
| 20260903150008 | 87 | 208 | 5.0 | 10.0 | 0.00 | 0.00 | 0.00 | 65 | 1016.6 |
| 20260903145501 | 87 | 203 | 5.0 | 10.0 | 0.00 | 0.00 | 0.00 | 65 | 1016.6 |
| 20260903145002 | 87 | 225 | 5.0 | 9.0 | 0.00 | 0.00 | 0.00 | 66 | 1016.6 |
| 20260903144503 | 87 | 231 | 4.0 | 10.0 | 0.00 | 0.00 | 0.00 | 68 | 1016.5 |
| 20260903144000 | 86 | 224 | 6.0 | 10.0 | 0.00 | 0.00 | 0.00 | 1016.5 | |
| 20260903143502 | 86 | 228 | 6.0 | 10.0 | 0.00 | 0.00 | 0.00 | 1016.5 | |
| 20260903143004 | 0 | 199 | 5.0 | 10.0 | 0.00 | 0.00 | 0.00 | 1016.5 | |
| 20260903142501 | 0 | 220 | 5.0 | 11.0 | 0.00 | 0.00 | 0.00 | 1016.4 | |
| 20260903141501 | 85 | 205 | 5.0 | 10.0 | 0.00 | 0.00 | 0.00 | 100 | 1016.5 |
| 20260903141001 | 0 | 210 | 4.0 | 7.0 | 0.00 | 0.00 | 0.00 | 1016.5 | |
| 20260903140501 | 0 | 240 | 5.0 | 8.0 | 0.00 | 0.00 | 0.00 | 1016.5 | |
| 20260903140004 | 0 | 233 | 5.0 | 8.0 | 0.00 | 0.00 | 0.00 | 1016.5 | |
| 20260903135003 | 0 | 221 | 4.0 | 8.0 | 0.00 | 0.00 | 0.00 | 1016.5 | |
| 20260903134502 | 0 | 231 | 5.0 | 8.0 | 0.00 | 0.00 | 0.00 | 1016.6 | |
| 20260903134000 | 0 | 221 | 5.0 | 8.0 | 0.00 | 0.00 | 0.00 | 1016.7 | |
| 20260903133502 | 0 | 215 | 4.0 | 6.0 | 0.00 | 0.00 | 0.00 | 1016.7 | |
| 20260903132500 | 0 | 216 | 3.0 | 5.0 | 0.00 | 0.00 | 0.00 | 1016.7 | |
| 20260903132000 | 0 | 207 | 3.0 | 6.0 | 0.00 | 0.00 | 0.00 | 1016.8 | |
| 20260903131500 | 0 | 222 | 2.0 | 6.0 | 0.00 | 0.00 | 0.00 | 1016.9 | |
| 20260903131001 | 0 | 187 | 2.0 | 5.0 | 0.00 | 0.00 | 0.00 | 1016.9 | |
| 20260903130500 | 0 | 203 | 2.0 | 6.0 | 0.00 | 0.00 | 0.00 | 1016.9 | |
| 20260903125501 | 0 | 212 | 2.0 | 4.0 | 0.00 | 0.00 | 0.00 | 1017.0 | |
| 20260903124503 | 0 | 211 | 3.0 | 5.0 | 0.00 | 0.00 | 0.00 | 1017.0 | |
| 20260903123500 | 0 | 191 | 2.0 | 6.0 | 0.00 | 0.00 | 0.00 | 1017.0 | |
| 20260903123001 | 0 | 203 | 2.0 | 6.0 | 0.00 | 0.00 | 0.00 | 1016.9 | |
| 20260903122502 | 0 | 190 | 3.0 | 4.0 | 0.00 | 0.00 | 0.00 | 1016.9 | |
| 20260903122004 | 0 | 190 | 2.0 | 4.0 | 0.00 | 0.00 | 0.00 | 1016.9 | |
| 20260903121002 | 0 | 200 | 2.0 | 3.0 | 0.00 | 0.00 | 0.00 | 1017.0 | |
| 20260903120501 | 0 | 188 | 1.0 | 4.0 | 0.00 | 0.00 | 0.00 | 1016.9 | |
| 20260903120003 | 0 | 204 | 2.0 | 4.0 | 0.00 | 0.00 | 0.00 | 1016.9 | |
| 20260903115501 | 0 | 196 | 1.0 | 3.0 | 0.00 | 0.00 | 0.00 | 1016.9 | |
| 20260903115002 | 0 | 193 | 1.0 | 3.0 | 0.00 | 0.00 | 0.00 | 1016.8 | |
| 20260903114001 | 0 | 198 | 1.0 | 3.0 | 0.00 | 0.00 | 0.00 | 1016.7 | |
| 20260903113501 | 0 | 198 | 0.0 | 2.0 | 0.00 | 0.00 | 0.00 | 1016.7 | |
| 20260903113000 | 0 | 198 | 1.0 | 2.0 | 0.00 | 0.00 | 0.00 | 1016.7 | |
| 20260903112501 | 0 | 201 | 0.0 | 2.0 | 0.00 | 0.00 | 0.00 | 1016.7 | |
| 20260903112002 | 0 | 203 | 1.0 | 4.0 | 0.00 | 0.00 | 0.00 | 1016.7 | |
| 20260903111501 | 0 | 206 | 2.0 | 4.0 | 0.00 | 0.00 | 0.00 | 1016.6 | |
| 20260903111000 | 0 | 214 | 3.0 | 4.0 | 0.00 | 0.00 | 0.00 | 1016.6 | |
| 20260903110004 | 0 | 205 | 1.0 | 2.0 | 0.00 | 0.00 | 0.00 | 1016.5 | |
| 20260903105503 | 0 | 200 | 0.0 | 1.0 | 0.00 | 0.00 | 0.00 | 1016.5 | |
| 20260903105001 | 0 | 201 | 1.0 | 2.0 | 0.00 | 0.00 | 0.00 | 1016.4 | |
| 20260903104502 | 0 | 201 | 0.0 | 3.0 | 0.00 | 0.00 | 0.00 | 1016.4 | |
| 20260903104000 | 0 | 198 | 1.0 | 3.0 | 0.00 | 0.00 | 0.00 | 1016.4 | |
| 20260903103503 | 0 | 213 | 2.0 | 3.0 | 0.00 | 0.00 | 0.00 | 1016.3 | |
| 20260903103001 | 0 | 214 | 2.0 | 3.0 | 0.00 | 0.00 | 0.00 | 1016.2 | |
| 20260903102501 | 0 | 209 | 2.0 | 3.0 | 0.00 | 0.00 | 0.00 | 1016.3 | |
| 20260903102001 | 0 | 207 | 2.0 | 6.0 | 0.00 | 0.00 | 0.00 | 1016.2 | |
| 20260903101501 | 0 | 214 | 3.0 | 6.0 | 0.00 | 0.00 | 0.00 | 1016.2 | |
| 20260903101002 | 0 | 224 | 4.0 | 6.0 | 0.00 | 0.00 | 0.00 | 1016.2 | |
| 20260903100002 | 0 | 204 | 3.0 | 5.0 | 0.00 | 0.00 | 0.00 | 1016.2 | |
| 20260903095500 | 0 | 224 | 3.0 | 5.0 | 0.00 | 0.00 | 0.00 | 1016.2 | |
| 20260903095002 | 0 | 220 | 3.0 | 4.0 | 0.00 | 0.00 | 0.00 | 1016.2 | |
| 20260903094500 | 0 | 201 | 2.0 | 4.0 | 0.00 | 0.00 | 0.00 | 1016.2 | |
| 20260903094001 | 0 | 197 | 1.0 | 3.0 | 0.00 | 0.00 | 0.00 | 1016.2 | |
| 20260903093002 | 76 | 193 | 1.0 | 5.0 | 0.00 | 0.00 | 0.00 | 83 | 1016.1 |
| 20260903092500 | 77 | 191 | 2.0 | 5.0 | 0.00 | 0.00 | 0.00 | 82 | 1016.2 |
| 20260903092000 | 77 | 203 | 2.0 | 4.0 | 0.00 | 0.00 | 0.00 | 82 | 1016.2 |
| 20260903091500 | 77 | 200 | 2.0 | 4.0 | 0.00 | 0.00 | 0.00 | 82 | 1016.2 |
| 20260903091002 | 77 | 205 | 3.0 | 4.0 | 0.00 | 0.00 | 0.00 | 82 | 1016.2 |
| 20260903090500 | 77 | 190 | 2.0 | 6.0 | 0.00 | 0.00 | 0.00 | 81 | 1016.1 |
| 20260903090003 | 77 | 186 | 2.0 | 7.0 | 0.00 | 0.00 | 0.00 | 81 | 1016.1 |
| 20260903084500 | 78 | 214 | 3.0 | 6.0 | 0.00 | 0.00 | 0.00 | 81 | 1016.1 |
| 20260903084001 | 78 | 213 | 3.0 | 5.0 | 0.00 | 0.00 | 0.00 | 81 | 1016.1 |
| 20260903083504 | 78 | 206 | 3.0 | 6.0 | 0.00 | 0.00 | 0.00 | 81 | 1016.1 |
| 20260903082000 | 78 | 201 | 3.0 | 6.0 | 0.00 | 0.00 | 0.00 | 80 | 1016.1 |
| 20260903081501 | 78 | 206 | 4.0 | 6.0 | 0.00 | 0.00 | 0.00 | 80 | 1016.1 |
| 20260903081002 | 78 | 205 | 3.0 | 5.0 | 0.00 | 0.00 | 0.00 | 80 | 1016.1 |
| 20260903080501 | 78 | 226 | 3.0 | 7.0 | 0.00 | 0.00 | 0.00 | 80 | 1016.1 |
| 20260903080004 | 79 | 252 | 3.0 | 8.0 | 0.00 | 0.00 | 0.00 | 80 | 1016.1 |
| 20260903075500 | 79 | 224 | 5.0 | 8.0 | 0.00 | 0.00 | 0.00 | 80 | 1016.0 |
| 20260903075003 | 79 | 213 | 4.0 | 8.0 | 0.00 | 0.00 | 0.00 | 80 | 1016.0 |
| 20260903074000 | 79 | 201 | 3.0 | 7.0 | 0.00 | 0.00 | 0.00 | 80 | 1016.0 |
| 20260903073501 | 79 | 222 | 2.0 | 6.0 | 0.00 | 0.00 | 0.00 | 80 | 1016.0 |
| 20260903072500 | 79 | 208 | 3.0 | 6.0 | 0.00 | 0.00 | 0.00 | 80 | 1015.9 |
| 20260903071501 | 79 | 209 | 2.0 | 5.0 | 0.00 | 0.00 | 0.00 | 80 | 1015.9 |
| 20260903071001 | 79 | 196 | 3.0 | 5.0 | 0.00 | 0.00 | 0.00 | 80 | 1015.9 |
| 20260903065502 | 79 | 197 | 2.0 | 5.0 | 0.00 | 0.00 | 0.00 | 80 | 1016.0 |
| 20260903063500 | 79 | 201 | 2.0 | 4.0 | 0.00 | 0.00 | 0.00 | 80 | 1016.1 |
| 20260903063003 | 79 | 200 | 2.0 | 4.0 | 0.00 | 0.00 | 0.00 | 80 | 1016.1 |
| 20260903062502 | 79 | 195 | 1.0 | 4.0 | 0.00 | 0.00 | 0.00 | 80 | 1016.1 |
| 20260903062000 | 79 | 198 | 2.0 | 5.0 | 0.00 | 0.00 | 0.00 | 80 | 1016.0 |
| 20260903061003 | 79 | 195 | 2.0 | 3.0 | 0.00 | 0.00 | 0.00 | 80 | 1016.0 |
| 20260903055501 | 80 | 203 | 2.0 | 5.0 | 0.00 | 0.00 | 0.00 | 80 | 1016.0 |
| 20260903054958 | 80 | 203 | 3.0 | 5.0 | 0.00 | 0.00 | 0.00 | 80 | 1016.0 |
| 20260903054500 | 80 | 203 | 3.0 | 5.0 | 0.00 | 0.00 | 0.00 | 80 | 1016.1 |
| 20260903054000 | 80 | 184 | 3.0 | 6.0 | 0.00 | 0.00 | 0.00 | 80 | 1016.0 |
| 20260903053501 | 79 | 198 | 3.0 | 4.0 | 0.00 | 0.00 | 0.00 | 81 | 1016.0 |
| 20260903053000 | 79 | 195 | 3.0 | 4.0 | 0.00 | 0.00 | 0.00 | 81 | 1015.9 |
| 20260903052459 | 79 | 195 | 2.0 | 4.0 | 0.00 | 0.00 | 0.00 | 81 | 1015.9 |
| 20260903051959 | 79 | 207 | 1.0 | 4.0 | 0.00 | 0.00 | 0.00 | 81 | 1015.9 |
| 20260903051500 | 79 | 187 | 2.0 | 4.0 | 0.00 | 0.00 | 0.00 | 81 | 1015.8 |
| 20260903051000 | 79 | 194 | 2.0 | 4.0 | 0.00 | 0.00 | 0.00 | 81 | 1015.7 |
| 20260903050004 | 79 | 195 | 2.0 | 4.0 | 0.00 | 0.00 | 0.00 | 81 | 1015.6 |
| 20260903045504 | 79 | 179 | 1.0 | 3.0 | 0.00 | 0.00 | 0.00 | 81 | 1015.6 |
| 20260903045002 | 79 | 195 | 1.0 | 3.0 | 0.00 | 0.00 | 0.00 | 81 | 1015.6 |
| 20260903044502 | 79 | 190 | 1.0 | 3.0 | 0.00 | 0.00 | 0.00 | 81 | 1015.6 |
| 20260903044003 | 79 | 193 | 1.0 | 2.0 | 0.00 | 0.00 | 0.00 | 81 | 1015.6 |
| 20260903043503 | 79 | 190 | 1.0 | 2.0 | 0.00 | 0.00 | 0.00 | 81 | 1015.5 |
| 20260903043002 | 80 | 189 | 0.0 | 2.0 | 0.00 | 0.00 | 0.00 | 81 | 1015.5 |
| 20260903042002 | 80 | 198 | 1.0 | 3.0 | 0.00 | 0.00 | 0.00 | 81 | 1015.6 |
| 20260903041504 | 80 | 199 | 0.0 | 2.0 | 0.00 | 0.00 | 0.00 | 80 | 1015.6 |
| 20260903041002 | 80 | 195 | 0.0 | 2.0 | 0.00 | 0.00 | 0.00 | 80 | 1015.6 |
| 20260903040502 | 80 | 189 | 1.0 | 5.0 | 0.00 | 0.00 | 0.00 | 80 | 1015.6 |
| 20260903040008 | 80 | 167 | 2.0 | 5.0 | 0.00 | 0.00 | 0.00 | 80 | 1015.6 |
| 20260903035503 | 80 | 191 | 1.0 | 4.0 | 0.00 | 0.00 | 0.00 | 80 | 1015.7 |
| 20260903035002 | 80 | 188 | 2.0 | 4.0 | 0.00 | 0.00 | 0.00 | 81 | 1015.7 |
| 20260903034502 | 80 | 193 | 2.0 | 3.0 | 0.00 | 0.00 | 0.00 | 81 | 1015.7 |
| 20260903034002 | 80 | 198 | 2.0 | 3.0 | 0.00 | 0.00 | 0.00 | 81 | 1015.8 |
| 20260903033504 | 80 | 188 | 0.0 | 0.0 | 0.00 | 0.00 | 0.00 | 81 | 1015.7 |
| 20260903033002 | 80 | 193 | 0.0 | 0.0 | 0.00 | 0.00 | 0.00 | 81 | 1015.7 |
| 20260903032504 | 80 | 193 | 0.0 | 1.0 | 0.00 | 0.00 | 0.00 | 80 | 1015.8 |
| 20260903032003 | 81 | 190 | 0.0 | 2.0 | 0.00 | 0.00 | 0.00 | 80 | 1015.9 |
| 20260903031502 | 81 | 190 | 0.0 | 2.0 | 0.00 | 0.00 | 0.00 | 79 | 1015.9 |
| 20260903030503 | 81 | 195 | 1.0 | 2.0 | 0.00 | 0.00 | 0.00 | 78 | 1015.9 |
| 20260903030005 | 81 | 190 | 1.0 | 2.0 | 0.00 | 0.00 | 0.00 | 78 | 1015.9 |
| 20260903025502 | 81 | 186 | 1.0 | 2.0 | 0.00 | 0.00 | 0.00 | 78 | 1015.9 |
| 20260903025004 | 81 | 190 | 0.0 | 1.0 | 0.00 | 0.00 | 0.00 | 78 | 1015.9 |
| 20260903024502 | 82 | 191 | 0.0 | 2.0 | 0.00 | 0.00 | 0.00 | 78 | 1015.9 |
| 20260903024003 | 82 | 198 | 0.0 | 2.0 | 0.00 | 0.00 | 0.00 | 78 | 1016.0 |
| 20260903023503 | 82 | 187 | 0.0 | 3.0 | 0.00 | 0.00 | 0.00 | 77 | 1015.9 |
| 20260903023004 | 82 | 175 | 0.0 | 3.0 | 0.00 | 0.00 | 0.00 | 77 | 1016.0 |
| 20260903022504 | 82 | 194 | 1.0 | 2.0 | 0.00 | 0.00 | 0.00 | 77 | 1016.0 |
| 20260903022004 | 82 | 195 | 1.0 | 2.0 | 0.00 | 0.00 | 0.00 | 77 | 1016.0 |
| 20260903021502 | 82 | 197 | 1.0 | 3.0 | 0.00 | 0.00 | 0.00 | 77 | 1016.0 |
| 20260903021002 | 82 | 187 | 2.0 | 3.0 | 0.00 | 0.00 | 0.00 | 77 | 1015.9 |